www.pogodaiklimat.ru

Погода и климат >> Архив погоды >> Индия >> Honavar


ПОГОДА в Honavar

  • Прогноз погоды в Honavar
  • Монитор погоды в Honavar
  • Климат города

АРХИВ ПОГОДЫ в Honavar

Время (UTC), дата Ветер
(напр.,м/с)
 
Видим.   Явления Облачность Т
(С)
Тd
(С)
f
(%)
Тe
(С)
Тes
(С)
Комфортность P
(гПа)
Po
(гПа)
Тmin
(С)
Tmax
(С)
R
(мм)
R24
(мм)
S
(см)
06 8.08 З 3 10 км 10/4 600 м
[Sc As op]
+28.0 +24.3 80 +39 +41 очень
душно
1008.1 1005.2
09 8.08 З 1 10 км {дождь} 10/8 200 м
[St As op]
+27.8 +23.2 76 +37 +38 очень
душно
1006.5 1003.6 0.4
12 8.08 З 1 4000 м слабый дождь {морось} 9/6 200 м
[Frnb Ac As]
+27.0 +25.6 92 +40 +40 очень
душно
1006.4 1003.5 +28.5 1
15 8.08 З 2 4000 м в посл. час морось 10/4 600 м
[Sc As op]
+26.0 +24.6 92 +37 +37 очень
душно
1008.1 1005.2 2
18 8.08 З 2 4000 м {морось} 10/4 300 м
[Sc As trans]
+25.8 +24.4 92 +36 +36 очень
душно
1008.8 1005.9 2
21 8.08 З 2 4000 м 10/4 600 м
[Sc As op]
+25.6 +24.1 91 +35 +35 очень
душно
1006.4 1003.5 2
00 9.08 З 2 4000 м в посл. час дождь 10/5 300 м
[Sc Ac As]
+25.4 +24.8 96 +36 +36 очень
душно
1008.2 1005.3 3
03 9.08 З 1 10 км 10/8 200 м
[St As op]
+26.4 +25.0 92 +38 +38 очень
душно
1010.1 1007.1 +24.4 +28.5 3
06 9.08 З 1 10 км {дождь} 9/6 200 м
[St Ac As]
+27.0 +25.0 89 +39 +44 очень
душно
1011.0 1008.1 6
09 9.08 З 3 10 км 8/4 600 м
[Cu Sc Ac trans Ci fib]
+28.2 +24.5 80 +40 +46 очень
душно
1009.9 1007.0 6
12 9.08 З 3 10 км 8/4 600 м
[Cu Sc Ac trans Ci fib]
+28.0 +25.4 86 +41 +42 опасность
перегрева
1009.8 1006.9 +29.0 6
15 9.08 З 3 4000 м в посл. час морось 8/4 600 м
[Sc Ac trans Ci fib]
+25.4 +24.8 96 +36 +36 очень
душно
1011.0 1008.1 6
18 9.08 З 2 4000 м {дождь, морось} 8/4 600 м
[Sc Ac trans Ci fib]
+25.4 +24.2 93 +35 +35 очень
душно
1011.8 1008.9 7
21 9.08 З 3 4000 м {дождь} 9/4 600 м
[Sc Ac trans Ci fib]
+25.2 +24.9 98 +36 +36 очень
душно
1008.1 1006.2 8
00 10.08 З 2 4000 м {дождь} 10/6 300 м
[Frnb As op]
+24.4 +23.8 96 +33 +33 очень
душно
1010.8 1007.9 18
03 10.08 З 2 10 км в посл. час морось 10/4 300 м
[Sc As op]
+25.0 +24.1 95 +34 +35 очень
душно
1012.2 1009.3 +24.0 +29.0 18
06 10.08 З 2 4000 м {дождь} 8/5 300 м
[Cu Sc Ac trans]
+27.0 +24.7 87 +38 +45 очень
душно
1012.3 1009.4
09 10.08 З 2 4000 м слабый дождь 10/8 200 м
[Frnb As op]
+25.0 +24.1 95 +34 +35 очень
душно
1011.4 1008.5 2
12 10.08 З 2 4000 м {дождь} 9/6 300 м
[Frnb As op]
+26.4 +23.5 84 +36 +36 очень
душно
1010.4 1007.5 +28.6 2
15 10.08 З 1 4000 м слабый дождь 10/8 200 м
[Frnb As op]
+23.4 +23.1 98 +33 +33 очень
душно
1011.9 1008.9 11
18 10.08 З 1 4000 м {дождь} 10/8 200 м
[St As op]
+24.4 +24.4 100 +34 +34 очень
душно
1012.4 1009.5 15
21 10.08 З 1 4000 м 8/8 200 м
[St]
+24.6 +24.6 100 +34 +34 очень
душно
1010.5 1007.6 15
00 11.08 З 1 4000 м {дождь, морось} 10/8 200 м
[St As op]
+25.0 +24.1 95 +34 +34 очень
душно
1009.7 1006.8 16
03 11.08 З 2 4000 м 8/5 300 м
[St As op]
+26.0 +24.6 92 +37 +38 очень
душно
1010.5 1007.6 +22.6 +28.6 16
06 11.08 З 2 4000 м 10/8 300 м
[Frnb As op]
+26.4 +24.4 89 +37 +38 очень
душно
1011.2 1008.3
09 11.08 З 2 4000 м в посл. час дождь 10/8 200 м
[Frnb As op]
+27.4 +24.5 84 +39 +39 очень
душно
1009.2 1006.3 3
12 11.08 З 2 4000 м слабый дождь 10/8 200 м
[Frnb As op]
+25.4 +24.2 93 +35 +35 очень
душно
1008.9 1006.0 +27.6 4
15 11.08 З 2 4000 м {дождь} 10/8 200 м
[Frnb As op]
+24.4 +23.8 96 +33 +33 очень
душно
1010.0 1007.1 6
18 11.08 З 1 4000 м {дождь} 6/5 300 м
[St As trans]
+24.0 +24.0 100 +33 +33 очень
душно
1010.9 1007.9 15
21 11.08 З 1 4000 м слабый дождь 10/8 200 м
[Frnb As op]
+24.0 +24.0 100 +33 +33 очень
душно
1009.1 1006.1 27
00 12.08 З 1 4000 м {дождь} 8/5 300 м
[St As trans]
+24.0 +24.0 100 +33 +33 очень
душно
1008.1 1005.1 27
03 12.08 З 2 4000 м слабый дождь 10/8 200 м
[Frnb As op]
+25.0 +23.0 89 +33 +33 очень
душно
1009.3 1006.4 +23.0 +27.6 28
06 12.08 З 2 4000 м слабый дождь 10/8 200 м
[Frnb As op]
+24.4 +23.5 95 +33 +34 очень
душно
1009.5 1006.6 14
09 12.08 З 1 4000 м слабый дождь 10/10 200 м
[]
+26.6 +24.3 87 +37 +37 очень
душно
1007.0 1004.1 15
12 12.08 З 1 10 км {дождь, морось} 10/8 200 м
[St As op]
+24.0 +23.4 96 +32 +32 очень
душно
1006.8 1003.8 +26.9 23
15 12.08 Ю 1 4000 м 8/5 300 м
[St Ac trans]
+25.0 +24.1 95 +34 +34 очень
душно
1007.6 1004.7 23
18 12.08 З 1 4000 м {дождь} 6/5 300 м
[St Ac trans]
+25.0 +24.1 95 +34 +34 очень
душно
1009.0 1006.1 25
21 12.08 З 1 4000 м 4/3 300 м
[St Ac trans]
+24.0 +24.0 100 +33 +33 очень
душно
1006.8 1003.8 25
00 13.08 З 2 4000 м слабый дождь 10/8 200 м
[Frnb As op]
+23.4 +22.8 96 +33 +33 очень
душно
1006.6 1003.6 45
03 13.08 штиль 0 10 км {дождь, морось} 10/8 200 м
[St As op]
+23.6 +23.3 98 +32 +32 очень
душно
1008.1 1005.1 +22.6 +26.9 58
06 13.08 З 1 4000 м слабая морось {дождь} 10/8 200 м
[Frnb As op]
+23.4 +23.4 100 +33 +34 очень
душно
1009.1 1006.1 17
09 13.08 З 2 4000 м слабый дождь 10/8 200 м
[Frnb As op]
+24.2 +23.9 98 +33 +34 очень
душно
1007.6 1004.7 27
12 13.08 З 2 4000 м слабый дождь 10/8 200 м
[Frnb As op]
+24.2 +23.9 98 +33 +33 очень
душно
1006.8 1007.0 +25.6 41
15 13.08 З 1 4000 м слабая морось {дождь} 10/8 200 м
[Frnb As op]
+23.4 +23.4 100 +33 +33 очень
душно
1008.9 1005.9 52
18 13.08 З 1 4000 м слабый дождь {морось} 10/8 200 м
[Frnb As op]
+24.8 +24.2 96 +34 +34 очень
душно
1008.6 1005.7 59
21 13.08 З 1 4000 м слабый дождь {морось} 10/8 200 м
[Frnb As op]
+24.4 +24.4 100 +34 +34 очень
душно
1006.4 1003.5 105
00 14.08 З 1 4000 м слабая морось {дождь} 10/8 200 м
[Frnb As op]
+24.6 +24.3 98 +34 +34 очень
душно
1006.0 1003.1 121
03 14.08 З 3 4000 м {дождь} 10/8 200 м
[Frnb As op]
+25.0 +24.1 95 +34 +35 очень
душно
1007.6 1004.7 +22.8 +25.6 145
06 14.08 З 2 4000 м в посл. час дождь 10/8 200 м
[Frnb As op]
+26.0 +24.6 92 +37 +37 очень
душно
1007.7 1004.8 1
09 14.08 З 1 10 км в посл. час дождь {морось} 10/8 200 м
[St As op]
+25.2 +24.9 98 +36 +36 очень
душно
1006.2 1003.3 3
12 14.08 ЮЗ 1 10 км 9/6 200 м
[St Ac As]
+25.8 +24.6 93 +36 +37 очень
душно
1005.4 1002.5 +26.5 3
15 14.08 З 1 4000 м 10/8 200 м
[St As op]
+25.8 +24.4 92 +36 +36 очень
душно
1006.8 1003.9 3
18 14.08 З 1 4000 м {дождь, морось} 10/8 200 м
[St As op]
+25.2 +24.0 93 +35 +35 очень
душно
1007.8 1004.9 4
21 14.08 З 1 4000 м {дождь} 10/8 200 м
[St As op]
+24.6 +23.7 95 +33 +33 очень
душно
1005.9 1003.0 4
00 15.08 З 1 4000 м {дождь} 10/8 200 м
[St As op]
+24.4 +24.4 100 +34 +34 очень
душно
1006.1 1003.2 4
03 15.08 З 1 10 км {дождь} 10/8 200 м
[St As op]
+25.0 +23.5 91 +34 +34 очень
душно
1007.2 1004.3 +24.1 +26.5 5

 

Местоположение метеостанции Honavar (Karnataka, Индия): широта 14.28 долгота 74.45 высота над уровнем моря 9 м.

В архиве по умолчанию представлена погода в Honavar за последнюю неделю. Архивные данные за месяц целиком и за предыдущие месяцы, начиная с января 2011 года, Вы можете получить, выбрав интересующий диапазон дат из раскрывающегося списка и нажав кнопку "Ввод!".


*Определитесь, кто Вы:
робот инопланетянин человек

Внимание! Время в таблицах - всемирное. Для получения местного времени необходимо прибавить поправку, которая в Honavar равна 5.5 ч.

Смотрите также архив погоды в соседних городах и на ближайших метеорологических станциях:

Погода в Shirali (Karnataka, Индия) (25 км)
Погода в Karwar (Karnataka, Индия) (65 км)
Погода в Agumbe Emo (Karnataka, Индия) (110 км)
Погода в Haveri (Karnataka, Индия) (116 км)
Погода в Shimoga (Karnataka, Индия) (133 км)
Погода в Dharwad (Karnataka, Индия) (145 км)
Погода в Mormugao (Goa, Индия) (146 км)
Погода в Panjim (Goa, Индия) (150 км)
Погода в Mangalore (Karnataka, Индия) (154 км)
Погода в Mangalore Airport (Karnataka, Индия) (158 км)

Пояснения к столбцам:

Ветер - указаны скорость ветра в м/с - средняя за 10 мин, порывы в срок и между сроками (в фигурных скобках) и направление, откуда дует ветер: С - северный, СВ - северо-восточный, В - восточный, ЮВ - юго-восточный, Ю - южный, ЮЗ - юго-западный, З - западный, СЗ - северо-западный.
Видимость - горизонтальная дальность видимости в метрах или километрах. При видимости от 1 до 10 км при отсутствии осадков обычно наблюдается дымка, при ухудшении видимости до 1 км и менее - туман. В сухую погоду видимость может ухудшаться дымом, пылью или мглою.
Явления - указаны атмосферные явления, наблюдавшиеся в срок или в последний час перед сроком; фигурными скобками обозначены явления, наблюдавшиеся между сроками (за 1-3 часа до срока); квадратными скобками обозначены град или гололедные отложения с указанием их диаметра в мм.
Облачность - указаны через наклонную черту общая и нижняя облачность в баллах и высота нижней границы облаков в метрах; квадратными скобками обозначены формы облаков: Ci - перистые, Cs - перисто-слоистые, Cc - перисто-кучевые, Ac - высококучевые, As - высокослоистые, Sc - слоисто-кучевые, Ns - слоисто-дождевые, Cu - кучевые, Cb - кучево-дождевые. Подробнее классификацию облаков см. в Атласе облаков (PDF).
T - Температура воздуха - температура, измеренная на высоте 2 м над землей.
Td - Температура точки росы - температура, при понижении до которой содержащийся в воздухе водяной пар достигнет насыщения.
f - Относительная влажность воздуха - влажноcть воздуха, измеренная на высоте 2 м над землей.
Te - Эффективная температура - температура, которую ощущает одетый по сезону человек в тени. Характеристика душности погоды. При расчете учитывается влияние влажности воздуха и скорости ветра на теплоощущения человека.
Tes - Эффективная температура на солнце - температура, которую ощущает человек, с поправкой на солнечный нагрев. Характеристика знойности погоды. Зависит от высоты солнца над горизонтом, облачности и скорости ветра. Ночью, в пасмурную погоду, а также при ветре 12 м/с и более поправка равна нулю.
P - Атмосферное давление - приведенное к уровню моря атмосферное давление.
Po - Атмосферное давление - измеренное на уровне метеостанции атмосферное давление.
Tmin - Минимальная температура - минимум температуры воздуха на высоте 2 м над землей.
Tmax - Максимальная температура - максимум температуры воздуха на высоте 2 м над землей.
R - Количество осадков - Количество выпавших осадков за период времени, мм. При наведении курсора мыши на число - период времени, за который выпало указанное количество осадков.
R24 - Количество осадков - Количество выпавших осадков за 24 часа, мм.
S - Снежный покров - Высота снежного покрова, см. При наведении курсора мыши на число - состояние снежного покрова и степень покрытия местности в баллах.